When you browse on this site, cookies collect data to enhance your experience and personalize the content and advertising you see.
Visit our Privacy Policy to learn more. By continuing to use the site, you agree to this use of cookies and data.
  • In Spain
  • List of Countries
  • For 7 days
  • Water Temperature
  • Satellite Maps
  • Weather Map
  • Weather Widgets
  • user-avatar
    Login

    Hourly Weather Maracaibo

    Today, 14 December, Friday

    Time Temperature Precipitation Wind Pressure Humidity
    00:00 +27°C° 0 mm 4 mps 754 mmHg 82%
    01:00 +26°C° 0 mm 4 mps 754 mmHg 82%
    02:00 +26°C° 0.4 mm 4 mps 754 mmHg 83%
    03:00 +26°C° 0.4 mm 3 mps 754 mmHg 83%
    04:00 +26°C° 0.4 mm 3 mps 754 mmHg 83%
    05:00 +26°C° 0.7 mm 3 mps 754 mmHg 83%
    06:00 +26°C° 0.7 mm 3 mps 755 mmHg 83%
    07:00 +26°C° 0.7 mm 3 mps 755 mmHg 83%
    08:00 +28°C° 0.1 mm 3 mps 755 mmHg 76%
    09:00 +30°C° 0.1 mm 2 mps 755 mmHg 68%
    10:00 +32°C° 0.1 mm 2 mps 756 mmHg 61%
    11:00 +33°C° 0 mm 3 mps 755 mmHg 57%
    12:00 +34°C° 0 mm 3 mps 754 mmHg 54%
    13:00 +35°C° 0 mm 3 mps 754 mmHg 51%
    14:00 +34°C° 0 mm 4 mps 753 mmHg 53%
    15:00 +34°C° 0 mm 4 mps 753 mmHg 56%
    16:00 +33°C° 0 mm 4 mps 752 mmHg 58%
    17:00 +32°C° 0 mm 5 mps 752 mmHg 64%
    18:00 +29°C° 0 mm 5 mps 753 mmHg 69%
    19:00 +28°C° 0 mm 6 mps 753 mmHg 75%
    20:00 +27°C° 0 mm 6 mps 754 mmHg 75%
    21:00 +27°C° 0 mm 5 mps 754 mmHg 75%
    22:00 +27°C° 0 mm 5 mps 755 mmHg 76%
    23:00 +27°C° 0 mm 5 mps 755 mmHg 77%

    Tomorrow, 15 December, Saturday

    Time Temperature Precipitation Wind Pressure Humidity
    00:00 +26°C° 0 mm 5 mps 755 mmHg 78%
    01:00 +26°C° 0 mm 4 mps 754 mmHg 79%
    02:00 +26°C° 0 mm 4 mps 754 mmHg 80%
    03:00 +26°C° 0 mm 4 mps 754 mmHg 81%
    04:00 +25°C° 0 mm 4 mps 754 mmHg 82%
    05:00 +26°C° 0 mm 3 mps 754 mmHg 81%
    06:00 +26°C° 0 mm 3 mps 755 mmHg 80%
    07:00 +26°C° 0 mm 3 mps 755 mmHg 79%
    08:00 +28°C° 0 mm 3 mps 755 mmHg 72%
    09:00 +30°C° 0 mm 2 mps 756 mmHg 64%
    10:00 +32°C° 0 mm 2 mps 756 mmHg 57%
    11:00 +34°C° 0 mm 2 mps 755 mmHg 54%
    12:00 +35°C° 0 mm 3 mps 754 mmHg 52%
    13:00 +35°C° 0 mm 3 mps 753 mmHg 49%
    14:00 +35°C° 0 mm 4 mps 753 mmHg 52%
    15:00 +34°C° 0 mm 4 mps 753 mmHg 55%
    16:00 +33°C° 0 mm 5 mps 752 mmHg 58%
    17:00 +32°C° 0 mm 5 mps 753 mmHg 63%
    18:00 +30°C° 0 mm 5 mps 753 mmHg 67%
    19:00 +28°C° 0 mm 6 mps 753 mmHg 72%
    20:00 +28°C° 0 mm 6 mps 754 mmHg 72%
    21:00 +28°C° 0 mm 6 mps 755 mmHg 72%
    22:00 +28°C° 0 mm 6 mps 755 mmHg 72%
    23:00 +27°C° 0 mm 5 mps 755 mmHg 73%

    Day after tomorrow, 16 December, Sunday

    Time Temperature Precipitation Wind Pressure Humidity
    00:00 +27°C° 0 mm 5 mps 755 mmHg 74%
    01:00 +27°C° 0 mm 5 mps 755 mmHg 76%
    02:00 +26°C° 0 mm 5 mps 754 mmHg 76%
    03:00 +26°C° 0 mm 5 mps 754 mmHg 77%
    04:00 +26°C° 0 mm 4 mps 754 mmHg 78%
    05:00 +26°C° 0 mm 4 mps 755 mmHg 77%
    06:00 +26°C° 0 mm 4 mps 755 mmHg 77%
    07:00 +26°C° 0 mm 4 mps 756 mmHg 77%
    08:00 +28°C° 0 mm 3 mps 756 mmHg 70%
    09:00 +30°C° 0 mm 3 mps 756 mmHg 64%
    10:00 +31°C° 0 mm 2 mps 756 mmHg 57%
    11:00 +33°C° 0 mm 3 mps 755 mmHg 55%
    12:00 +34°C° 0 mm 3 mps 754 mmHg 52%
    13:00 +35°C° 0 mm 3 mps 753 mmHg 50%
    14:00 +34°C° 0 mm 3 mps 753 mmHg 52%
    15:00 +34°C° 0 mm 4 mps 752 mmHg 54%
    16:00 +33°C° 0 mm 5 mps 751 mmHg 56%
    17:00 +32°C° 0 mm 5 mps 752 mmHg 62%
    18:00 +29°C° 0 mm 6 mps 752 mmHg 67%
    19:00 +28°C° 0 mm 6 mps 753 mmHg 73%
    20:00 +28°C° 0 mm 6 mps 753 mmHg 74%
    21:00 +27°C° 0 mm 6 mps 754 mmHg 75%
    22:00 +27°C° 0 mm 6 mps 754 mmHg 76%
    23:00 +27°C° 0 mm 6 mps 754 mmHg 77%

    17 December, Monday

    Time Temperature Precipitation Wind Pressure Humidity
    00:00 +26°C° 0 mm 5 mps 754 mmHg 78%
    01:00 +26°C° 0 mm 5 mps 754 mmHg 79%
    02:00 +26°C° 0 mm 4 mps 753 mmHg 80%
    03:00 +25°C° 0 mm 4 mps 753 mmHg 81%
    04:00 +25°C° 0 mm 4 mps 753 mmHg 82%
    05:00 +25°C° 0 mm 3 mps 754 mmHg 82%
    06:00 +26°C° 0 mm 3 mps 754 mmHg 81%
    07:00 +26°C° 0 mm 3 mps 755 mmHg 80%
    08:00 +28°C° 0 mm 3 mps 755 mmHg 72%
    09:00 +30°C° 0 mm 2 mps 755 mmHg 64%
    10:00 +32°C° 0 mm 2 mps 755 mmHg 56%
    11:00 +34°C° 0 mm 2 mps 754 mmHg 53%
    12:00 +34°C° 0 mm 2 mps 753 mmHg 51%
    13:00 +35°C° 0 mm 3 mps 752 mmHg 48%
    14:00 +35°C° 0 mm 3 mps 752 mmHg 50%
    15:00 +34°C° 0 mm 4 mps 751 mmHg 53%
    16:00 +33°C° 0 mm 4 mps 751 mmHg 55%
    17:00 +32°C° 0 mm 4 mps 751 mmHg 63%
    18:00 +29°C° 0 mm 5 mps 752 mmHg 70%
    19:00 +28°C° 0 mm 5 mps 753 mmHg 78%
    20:00 +27°C° 0 mm 5 mps 753 mmHg 79%
    21:00 +27°C° 0 mm 5 mps 754 mmHg 80%
    22:00 +27°C° 0 mm 5 mps 754 mmHg 82%
    23:00 +27°C° 0 mm 4 mps 754 mmHg 83%

    18 December, Tuesday

    Time Temperature Precipitation Wind Pressure Humidity
    00:00 +26°C° 0 mm 4 mps 753 mmHg 84%
    01:00 +26°C° 0 mm 3 mps 753 mmHg 85%
    02:00 +26°C° 0 mm 3 mps 753 mmHg 85%
    03:00 +26°C° 0 mm 3 mps 753 mmHg 86%
    04:00 +25°C° 0 mm 3 mps 753 mmHg 86%
    05:00 +26°C° 0 mm 3 mps 753 mmHg 85%
    06:00 +26°C° 0 mm 2 mps 754 mmHg 84%
    07:00 +26°C° 0 mm 2 mps 754 mmHg 82%
    08:00 +28°C° 0 mm 2 mps 755 mmHg 74%
    09:00 +30°C° 0 mm 2 mps 755 mmHg 66%
    10:00 +32°C° 0 mm 2 mps 755 mmHg 58%
    11:00 +34°C° 0 mm 2 mps 754 mmHg 55%
    12:00 +35°C° 0 mm 2 mps 753 mmHg 51%
    13:00 +35°C° 0 mm 2 mps 752 mmHg 48%
    14:00 +35°C° 0 mm 3 mps 751 mmHg 51%
    15:00 +34°C° 0 mm 3 mps 751 mmHg 53%
    16:00 +34°C° 0 mm 4 mps 751 mmHg 56%
    17:00 +32°C° 0 mm 4 mps 751 mmHg 63%
    18:00 +29°C° 0 mm 4 mps 752 mmHg 71%
    19:00 +28°C° 0 mm 5 mps 753 mmHg 78%
    20:00 +27°C° 0.1 mm 5 mps 753 mmHg 82%
    21:00 +27°C° 0.1 mm 5 mps 754 mmHg 85%
    22:00 +26°C° 0.1 mm 5 mps 754 mmHg 89%
    23:00 +26°C° 0.1 mm 4 mps 754 mmHg 90%

    19 December, Wednesday

    Time Temperature Precipitation Wind Pressure Humidity
    00:00 +26°C° 0.1 mm 4 mps 754 mmHg 91%
    01:00 +26°C° 0.1 mm 4 mps 753 mmHg 92%
    02:00 +26°C° 0 mm 3 mps 753 mmHg 92%
    03:00 +25°C° 0 mm 3 mps 753 mmHg 92%
    04:00 +25°C° 0 mm 3 mps 753 mmHg 91%
    05:00 +26°C° 0 mm 3 mps 754 mmHg 90%
    06:00 +26°C° 0 mm 3 mps 754 mmHg 88%
    07:00 +26°C° 0 mm 3 mps 755 mmHg 86%
    08:00 +28°C° 0 mm 2 mps 755 mmHg 78%
    09:00 +30°C° 0 mm 2 mps 755 mmHg 69%
    10:00 +32°C° 0 mm 2 mps 755 mmHg 60%
    11:00 +34°C° 0 mm 2 mps 754 mmHg 57%
    12:00 +34°C° 0 mm 3 mps 753 mmHg 54%
    13:00 +35°C° 0 mm 3 mps 752 mmHg 51%
    14:00 +34°C° 0 mm 4 mps 752 mmHg 54%
    15:00 +34°C° 0 mm 4 mps 751 mmHg 57%
    16:00 +33°C° 0 mm 5 mps 751 mmHg 61%
    17:00 +32°C° 0.1 mm 5 mps 752 mmHg 66%
    18:00 +29°C° 0.1 mm 6 mps 752 mmHg 72%
    19:00 +28°C° 0.1 mm 6 mps 753 mmHg 78%
    20:00 +28°C° 0.2 mm 6 mps 753 mmHg 80%
    21:00 +27°C° 0.2 mm 6 mps 753 mmHg 82%
    22:00 +27°C° 0.2 mm 5 mps 754 mmHg 83%
    23:00 +27°C° 0 mm 5 mps 753 mmHg 85%
    Show more